User: anonymous   Login
Location: Waning Moon II Observatory
(30.3730°N, 89.7620°W)
Time: 13:01:49
(UTC-05:00)
Language:

Cosmos 1825 Rocket - Orbit

View from above orbital plane
View from above orbital plane
View from above satellite
View from above satellite

Ground track
Ground track

The orbit data is extracted from the following two-line orbital elements,

1 17567U 87024B   14296.37328149  .00000697  00000-0  82330-4 0  4948
2 17567 082.5320 024.6193 0017907 299.2457 129.4122 14.83180827492980
Epoch (UTC): 23 October 2014 08:57:31
Eccentricity: 0.0017907
inclination: 82.5320°
perigee height: 607 km
apogee height: 632 km
right ascension of ascending node: 24.6193°
argument of perigee: 299.2457°
revolutions per day: 14.83180827
mean anomaly at epoch: 129.4122°
orbit number at epoch: 49298

The dashed part of the orbit path shows where the satellite is in the earth's shadow,  

DLR